Location: Pinon Hills
(34.4429°N, 117.6403°W)
Time: 20:21:51
(UTC-07:00)

Daily predictions for brighter satellites

Satellite Brightness Start Highest point End
(mag) Time Altitude Azimuth Time Altitude Azimuth Time Altitude Azimuth
Cosmos 2344 4.1 19:20:58 10° SW 19:28:37 68° WNW 19:36:55 10° NNE
SJ-6B 2.9 19:28:02 10° SSE 19:31:38 49° ENE 19:35:15 10° N
Yuri Rocket 4.3 19:28:03 10° WSW 19:32:18 31° SSW 19:36:01 10° SE
H-2A R/B 3.9 19:30:10 10° SE 19:33:21 24° ENE 19:36:34 10° NNE
Cosmos 1821 Rocket 4.4 19:28:46 10° SSW 19:35:08 73° W 19:41:30 10° N
Cosmos 2297 3.8 19:30:25 10° S 19:35:56 54° ESE 19:41:31 10° NNE
SL-27 R/B 2.6 19:32:27 10° NNW 19:36:04 82° WSW 19:39:42 10° SSE
Resurs 01 Rocket 2.5 19:34:01 10° SE 19:37:51 30° ENE 19:41:41 10° N
ISS -3.9 19:37:08 10° SW 19:40:22 81° SE 19:43:38 10° NE
Timation 1 Rocket 4.4 19:42:17 10° SSW 19:48:17 90° ESE 19:54:20 10° NNE
FengYun 1-2 T 4.3 19:44:31 10° SSE 19:50:00 61° ENE 19:55:32 10° N
Cosmos 2082 Rocket 2.9 19:46:17 10° N 19:51:27 35° ENE 19:56:35 10° SE
FREGAT/IRIS 3.1 19:48:35 10° S 19:51:37 65° W 19:54:40 10° NNW
Cosmos 1605 Rocket 4.0 19:47:07 10° S 19:53:22 84° E 19:59:45 10° N
H-II Stage 2 2.3 19:53:25 10° SW 19:55:11 23° S 19:56:27 15° SE
Cosmos 1271 Rocket 3.6 19:54:35 10° SSE 19:58:05 30° E 20:01:37 10° NNE
COSMOS 2487 3.4 19:55:25 10° N 19:58:34 29° ENE 20:00:44 16° ESE
Cosmos 1758 3.2 19:56:01 10° S 19:59:58 78° E 20:03:58 10° N
Meteor 1-24 Rocket 4.5 19:56:00 10° NNW 20:01:27 57° W 20:07:07 10° S
Delta 128 4.4 20:00:52 10° WSW 20:05:09 37° S 20:07:59 18° SE
Cosmos 1953 2.3 20:02:11 10° S 20:06:15 85° E 20:10:19 10° N
Cosmos 372 Rocket 3.9 20:02:56 10° SSW 20:08:01 82° ESE 20:13:11 10° NNE
Cosmos 1674 3.3 20:05:23 10° NNE 20:08:53 35° E 20:11:14 18° SE
Cosmos 1818 3.5 20:05:12 10° NNW 20:10:39 77° ENE 20:15:45 12° SSE
Cosmos 1269 Rocket 4.1 20:05:46 10° N 20:10:58 56° ENE 20:15:54 11° SSE
BREEZE-M DEB (TANK) 2.5 20:08:26 10° SW 20:11:10 87° SE 20:18:52 10° ENE
Aurora 2 Rocket 4.4 20:04:41 10° WSW 20:11:54 36° S 20:15:38 18° SE
Cosmos 2123 Rocket 4.4 20:06:02 10° NNW 20:12:17 68° W 20:18:28 10° S
Lacrosse 5 4.5 20:09:06 10° WNW 20:12:22 17° NW 20:15:37 10° N
Resurs 1-3 3.6 20:08:40 10° SSE 20:12:59 64° ENE 20:17:20 10° N
Cosmos 158 Rocket 4.2 20:10:00 10° N 20:15:01 49° ENE 20:18:58 16° SE
Cosmos 468 4.5 20:10:11 10° NNW 20:15:26 88° WSW 20:20:41 10° SSE
Meteor 1-4 Rocket 3.1 20:12:10 10° SSW 20:15:34 56° W 20:19:00 10° N
Cosmos 1408 Rocket 3.8 20:11:48 10° N 20:16:08 49° E 20:19:55 13° SSE
Cosmos 1939 Rocket 4.4 20:18:51 20° ENE 20:18:51 20° ENE 20:21:47 10° NNE
Cosmos 1802 Rocket 4.2 20:15:41 10° SSE 20:21:24 43° E 20:27:10 10° NNE
Helios 1B rocket 2.5 20:18:29 10° NNE 20:22:31 52° E 20:26:31 10° S
USA 215 3.5 20:19:46 10° ENE 20:25:56 43° SE 20:32:03 10° SSW
Cosmos 1842 Rocket 4.3 20:27:30 30° E 20:27:30 30° E 20:31:11 10° NNE
Lacrosse 5 rocket 2.3 20:26:10 10° NNW 20:29:29 26° NE 20:29:53 26° NE
Spot 2 Rocket 3.7 20:26:57 10° S 20:32:02 74° WSW 20:37:10 10° NNW
CZ-2D R/B 3.3 20:29:13 11° S 20:32:51 81° WSW 20:36:45 10° NNW
Cosmos 1076 Rocket 3.9 20:31:28 10° NNW 20:35:40 62° W 20:39:50 10° S
Delta 168 4.3 20:35:01 10° SW 20:37:55 19° S 20:38:12 19° S
Abrixas 2.9 20:35:27 10° WNW 20:38:12 49° SW 20:38:13 49° SW
Cosmos 2061 Rocket 4.0 20:32:24 10° S 20:38:44 69° E 20:45:08 10° NNE
Helios 1A 2.8 20:39:35 35° SSE 20:41:16 74° ENE 20:45:27 10° N
Tiangong 1 3.8 20:41:53 10° SW 20:42:29 10° SW 20:43:04 10° SSW
Cosmos 1459 Rocket 3.9 20:36:43 10° S 20:42:58 82° E 20:49:10 10° N
ALOS 4.3 20:41:13 10° SSW 20:45:12 28° W 20:49:12 10° NW
Timation 2 Rocket 3.8 20:41:48 10° NNW 20:48:05 86° ENE 20:51:22 29° SSE
PSLV R/B 4.2 20:45:51 10° SW 20:47:53 36° SW 20:47:53 36° SW
Envisat 3.0 20:48:55 44° SE 20:50:15 60° ENE 20:55:15 10° N
Gblst 52 Del rocket 4.1 20:45:07 10° SW 20:51:17 80° SE 20:54:40 25° NE
Cosmos 2173 Rocket 3.9 20:45:12 10° S 20:51:22 87° W 20:57:39 10° N
Cosmos 1733 4.0 20:48:51 10° SSW 20:52:37 52° W 20:56:25 10° N
GPS 2-05 Rocket1 3.1 20:50:28 10° W 20:53:50 68° NNW 20:53:50 68° NNW
Cosmos 1470 3.8 20:51:07 10° SSW 20:54:56 46° W 20:58:47 10° N
Cosmos 1833 Rocket 2.8 20:49:27 10° NNW 20:55:03 71° WSW 20:58:19 26° S
DASH 3.4 20:41:59 10° W 20:55:25 53° S 20:56:27 44° SSE
Meteor 2-17 Rocket 4.3 20:52:47 10° S 20:58:55 77° E 21:05:04 10° N
USA 186 4.4 21:01:11 12° NW 21:01:11 12° NW 21:01:26 10° NW
SeaSat 1 3.8 20:55:08 10° S 20:59:38 37° WSW 21:04:11 10° NW
Cosmos-2242 4.3 20:56:35 10° SSW 21:00:35 40° W 21:04:36 10° N
ERS-1 Rocket 3.7 21:03:15 36° NE 21:03:15 36° NE 21:07:01 10° N
ATLAS 5 CENTAUR R/B 3.8 21:00:15 10° WSW 21:04:16 28° NW 21:08:34 10° N
GP-B 4.3 21:00:40 10° SSW 21:04:51 42° W 21:09:05 10° NNW
OAO 2 Rocket 3.3 21:04:14 10° WSW 21:09:17 68° S 21:09:17 68° S
Cosmos 1340 Rocket 3.6 21:09:43 10° NNW 21:13:35 48° W 21:13:50 48° WSW
Resurs 01 Rocket 4.1 21:11:03 10° SW 21:14:17 20° W 21:17:33 10° NW
ISS -0.8 21:15:43 10° NW 21:17:13 12° NNW 21:18:08 11° N
Cosmos 2016 Rocket 4.2 21:17:25 10° SSW 21:23:36 66° W 21:29:44 10° N
Cosmos 1725 Rocket 3.9 21:31:58 57° SSW 21:33:19 82° W 21:39:33 10° N
Cosmos 2082 Rocket 4.0 21:30:41 10° NW 21:35:19 26° WSW 21:38:32 16° SSW
Cosmos 2251 Rocket 4.3 21:45:31 10° NNW 21:49:45 49° WNW 21:49:45 49° WNW
Tsikada Rocket 4.3 21:53:28 10° NNW 21:58:55 62° NW 21:58:55 62° NW
Lacrosse 5 rocket 4.5 22:05:31 10° WNW 22:05:37 10° WNW 22:05:37 10° WNW
USA 215 4.0 22:02:42 10° NNE 22:08:53 47° NW 22:15:03 10° WSW
Cosmos 2369 Rocket 4.2 22:25:00 22° NNW 22:25:00 22° NNW 22:27:14 10° N
